星链-34551 (STARLINK-34551)

导读

STARLINK-34551是美国SpaceX星链星座的一颗卫星,于2025年6月28日发射升空。星链计划旨在构建全球卫星互联网星座,为全球偏远地区、海洋空域等提供低延迟高速网络接入服务,该卫星入轨后将进一步扩充星链星座的在轨规模,提升星座全球覆盖能力与网络服务性能。

Basic Information
目录编号:
64682
目录名称:
STARLINK-34551
国际标识:
2025-139U
轨道中心:
EARTH
卫星名称:
星链-34551
卫星全名:
星链-34551 (STARLINK-34551)
卫星状态:
在轨 (已飞行433 天)
发射日期:
2025-06-28 UTC
国别 :
美国 (US)
星等 :
--
Orbit Information
数据来源 国际轨道数据 AOE轨道数据
星历时间 2026-09-04T03:32:54+0800
13小时前
查看轨道信息
2026-08-31T08:00:00+0800
4天前
查看轨道信息
半长轴 6840.799km 6840.941km
偏心率 0.0001165 0.0000866
轨道倾角 53.161° 53.160°
近地点辐角 60.898° 85.796°
升交点赤经 7.757° 25.589°
平近点角 299.214° 71.831°
近地点 461.865km 462.211km
远地点 463.459km 463.397km
周期 93.847分钟 93.850分钟
每日圈数 15.344139 15.343664
Detailed Information
固有亮度:
5
最大亮度:
2.5
卫星平台:
Starlink V1.0
覆盖范围:
全球
运营商:
太空探索技术公司
运营商所在国:
美国
制造商(研发单位):
太空探索技术公司
制造商所在国:
美国
使用方式:
暂无
Satellite Introduction
Starlink 计划是 SpaceX 推出的全球卫星互联网项目,通过发射低轨道卫星,为全球尤其是偏远地区提供高速、低延迟的互联网服务。自 2019 年起,Starlink 已部署数千颗卫星,旨在缩小全球数字鸿沟,推动互联网普及。该项目还为军事、航空等行业提供通信支持,带来广泛经济效益。
2D Orbit Map
3D Orbit Map
Orbit Altitude Analysis Chart
Orbit Inclination Analysis Chart
Orbit Comprehensive Analysis Chart
View Comprehensive Chart
Conjunction Data List
Event ID Objects TCA Miss Dist (km) Collision Risk Probability Collision Risk Index (CRI) Action
CDM_260903-221606-425606-468222
2026-09-03T
22:16:31+0000
0.168 km
中距离
3.724924E-4 高风险 0.86
CDM_260905-030506-468206-611921
2026-09-05T
03:05:10+0000
0.319 km
远距离
3.461707E-4 高风险 0.86
CDM_260903-221006-468206-611921
2026-09-03T
22:10:05+0000
0.356 km
远距离
2.854591E-4 高风险 0.84
CDM_260904-021106-425606-468222
2026-09-04T
02:11:00+0000
0.215 km
中距离
2.500772E-4 高风险 0.83
CDM_260905-062206-468206-984321
2026-09-05T
06:22:51+0000
0.408 km
远距离
1.625406E-4 高风险 0.79
CDM_260903-182806-468206-628821
2026-09-03T
18:28:30+0000
0.510 km
远距离
1.272677E-4 高风险 0.77
CDM_260905-013106-468206-611921
2026-09-05T
01:31:23+0000
0.800 km
远距离
3.620882E-5 中风险 0.66
CDM_260904-105306-468206-628821
2026-09-04T
10:53:18+0000
0.797 km
远距离
3.510495E-5 中风险 0.66
CDM_260903-234306-468206-611921
2026-09-03T
23:43:52+0000
0.916 km
远距离
2.308869E-5 中风险 0.62
CDM_260904-122706-468206-628821
2026-09-04T
12:27:06+0000
1.179 km
极远距离
9.241949E-6 低风险 0.54